Station MKGM4 - Muskegon CG Station, Muskegon, MI Image indicating link to RSS feed of recent meteorological observations for station MKGM4


Conditions at MKGM4 as of
(5:40 am EDT)
0940 GMT on 06/14/2024:
     

Click on the graph icon in the table below to see a time series plot of the last five days of that observation.

5-day plot - Wind Direction Wind Direction (WDIR):ENE ( 70 deg true )
5-day plot - Wind Speed Wind Speed (WSPD):4.1 m/s
5-day plot - Wind Gust Wind Gust (GST):5.1 m/s
5-day plot - Atmospheric Pressure Atmospheric Pressure (PRES):1012.6 mb
5-day plot - Air Temperature Air Temperature (ATMP): 17.3 °C
5-day plot - Dew Point Dew Point (DEWP): 16.0 °C
5-day plot -  Wind Speed, Wind Gust and Atmospheric Pressure Combined plot of Wind Speed, Gust, and Air Pressure
Previous observations
TIME
(EDT)
5-day plot - Wind Direction
WDIR
 
5-day plot - Wind Speed
WSPD
m/s
5-day plot - Wind Gust
GST
m/s
5-day plot - Wave Height
WVHT
m
5-day plot - Dominant Wave Period
DPD
sec
5-day plot - Average Wave Period
APD
sec
5-day plot - Mean Wave Direction
MWD
 
5-day plot - Atmospheric Pressure
PRES
mb
5-day plot - Pressure Tendency
PTDY
mb
5-day plot - Air Temperature
ATMP
°C
5-day plot - Water Temperature
WTMP
°C
5-day plot - Dew Point
DEWP
°C
5-day plot - Salinity
SAL
psu
5-day plot - Visibility
VIS
km
5-day plot - Tide (above MLLW)
TIDE
m
2024-06-14 05:30 amENE 3 4----1012.6- 17.3- 16.4---
2024-06-14 05:20 amENE 4 5----1012.3- 17.5- 16.3---
2024-06-14 05:10 amENE 4 5----1012.1- 17.7- 15.7---
2024-06-14 05:00 amENE 4 5----1012.0 +1.3 17.8- 16.1---
2024-06-14 04:50 amENE 4 6----1011.9- 17.8- 16.1---
2024-06-14 04:40 amENE 4 6----1011.9- 17.6- 16.0---
2024-06-14 04:30 am NE 5 6----1011.8- 17.3- 16.1---
2024-06-14 04:20 am NE 5 6----1011.6- 17.4- 16.2---
2024-06-14 04:10 am NE 5 6----1011.5- 17.8- 16.2---
2024-06-14 04:00 amENE 4 5----1011.3 +0.0 18.1- 15.9---
2024-06-14 03:50 amENE 4 6----1011.3- 18.3- 16.0---
2024-06-14 03:40 amENE 4 5----1011.3- 17.5- 16.0---
2024-06-14 03:30 am NE 5 6----1011.2- 17.2- 16.0---
2024-06-14 03:20 am NE 5 6----1011.1- 17.1- 15.7---
2024-06-14 03:10 am NE 4 5----1011.2- 17.1- 16.0---
2024-06-14 03:00 am N 5 5----1011.2 +0.0 17.2- 16.8---
2024-06-14 02:50 am NE 3 3----1010.9- 17.5- 17.5---
2024-06-14 02:40 am E 2 2----1010.8- 17.9- 17.8---
2024-06-14 02:30 am NE 2 2----1010.9- 17.4- 17.4---
2024-06-14 02:20 am- 0 0----1010.7- 17.6- 17.6---
2024-06-14 02:10 am- 0 0----1010.7- 17.6- 17.5---
2024-06-14 02:00 am N 0 0----1010.7 +0.0 18.0- 17.4---
2024-06-14 01:50 amESE 0 1----1010.7- 18.2- 17.5---
2024-06-14 01:40 am E 2 2----1010.8- 18.2- 17.3---
2024-06-14 01:30 am E 3 3----1010.8- 17.9- 17.3---
2024-06-14 01:20 am E 3 4----1010.9- 18.0- 17.1---
2024-06-14 01:10 am N 3 4----1011.2- 18.0- 17.2---
2024-06-14 01:00 am N 5 8----1011.1 +0.8 18.1- 17.3---
2024-06-14 12:50 amWSW 4 5----1010.7- 18.6- 17.4---
2024-06-14 12:40 amWSW 3 4----1010.9- 17.8- 17.8---
2024-06-14 12:30 amSSE 3 3----1010.9- 17.7- 17.7---
2024-06-14 12:20 amSSW 5 6----1010.8- 18.7- 18.5---
2024-06-14 12:10 amSSE 5 6----1011.0- 18.0- 18.0---
2024-06-14 12:00 amSSE 4 5----1011.0 +1.7 18.0- 17.9---
2024-06-13 11:50 pmSSE 4 4----1011.0- 17.8- 17.4---
2024-06-13 11:40 pmSSE 3 4----1010.9- 17.7- 17.2---
2024-06-13 11:30 pmSSE 4 4----1010.8- 18.0- 17.0---
2024-06-13 11:20 pmSSE 4 4----1010.8- 17.9- 16.8---
2024-06-13 11:10 pmSSE 3 3----1010.9- 17.6- 16.7---
2024-06-13 11:00 pm S 4 4----1010.9 +2.6 17.2- 16.6---
2024-06-13 10:50 pm S 5 5----1011.0- 17.0- 16.5---
2024-06-13 10:40 pmSSE 5 5----1011.0- 16.4- 16.4---
2024-06-13 10:30 pm S 5 5----1010.5- 16.8- 16.6---
2024-06-13 10:20 pm S 5 5----1010.3- 17.0- 16.6---
2024-06-13 10:10 pmSSE 5 6----1010.5- 16.7- 16.5---
2024-06-13 10:00 pmSSE 6 6----1010.3 +1.6 16.6- 16.5---
2024-06-13 09:50 pmSSE 5 6----1010.3- 16.6- 16.5---
2024-06-13 09:40 pmSSE 6 6----1010.1- 17.2- 16.6---
2024-06-13 09:30 pmSSE 5 5----1010.0- 17.4- 16.4---
2024-06-13 09:20 pmSSE 4 5----1009.9- 17.4- 16.1---
2024-06-13 09:10 pmSSE 4 4----1009.5- 19.7- 15.2---
2024-06-13 09:00 pm S 4 4----1009.3 +2.6 19.3- 15.4---
2024-06-13 08:50 pmSSW 1 2----1009.0- 19.8- 15.3---
2024-06-13 08:40 pm W 1 2----1008.7- 21.3- 15.3---
2024-06-13 08:30 pmWNW 1 2----1008.4- 21.8- 14.7---
2024-06-13 08:10 pm NW 2 2----1008.4- 20.9- 15.2---
2024-06-13 08:00 pm NW 2 2----1008.3 -0.4 20.9- 15.5---
2024-06-13 07:50 pm NW 2 3----1008.4- 20.7- 15.6---
2024-06-13 07:40 pmWNW 4 4----1008.4- 20.4- 15.8---
2024-06-13 07:30 pmNNW 4 4----1008.3- 19.7- 16.2---
2024-06-13 07:20 pmWNW 5 6----1008.4- 20.1- 16.2---
2024-06-13 07:10 pm W 2 5----1008.5- 18.9- 16.4---
2024-06-13 07:00 pm S 0 1----1008.7 -0.8 18.4- 16.3---
2024-06-13 06:50 pmWSW 3 4----1008.5- 18.7- 16.4---
2024-06-13 06:40 pmWSW 6 6----1008.1- 19.6- 16.7---
2024-06-13 06:30 pmWNW 5 6----1007.7- 22.2- 17.3---
2024-06-13 06:20 pm NW 5 6----1007.0- 23.8- 17.5---
2024-06-13 06:10 pm N 1 2----1006.0- 22.8- 17.6---
2024-06-13 06:00 pmNNW 2 2----1006.7 -3.1 21.4- 17.4---
2024-06-13 05:50 pm NW 3 4----1007.8- 20.9- 17.3---
2024-06-13 05:40 pm NW 3 4----1008.3- 20.2- 17.3---
2024-06-13 05:30 pm NW 3 3----1009.0- 19.6- 17.1---
2024-06-13 05:20 pm S 0 2----1009.1- 18.8- 17.1---
2024-06-13 05:10 pm W 3 3----1009.0- 19.8- 17.3---
2024-06-13 05:00 pm S 1 2----1008.7 -0.8 18.1- 17.1---
2024-06-13 04:50 pm S 3 3----1009.2- 17.8- 16.9---
2024-06-13 04:40 pm S 6 6----1008.9- 18.3- 17.0---
2024-06-13 04:30 pm S 4 5----1009.2- 18.4- 17.1---
2024-06-13 04:20 pmSSE 5 6----1008.9- 18.2- 17.0---
2024-06-13 04:10 pmSSE 7 7----1008.9- 17.5- 16.8---
2024-06-13 04:00 pm S 6 6----1009.5 +0.3 17.7- 16.8---
2024-06-13 03:50 pm S 6 6----1009.8- 17.7- 16.9---
2024-06-13 03:40 pmSSE 6 7----1009.6- 17.4- 16.8---
2024-06-13 03:30 pm S 5 6----1010.0- 17.2- 16.7---
2024-06-13 03:20 pmSSE 6 6----1009.7- 17.2- 16.7---
2024-06-13 03:10 pmSSE 6 6----1009.8- 17.0- 16.6---
2024-06-13 03:00 pmSSE 6 6----1009.8 +0.6 16.8- 16.5---
2024-06-13 02:50 pm S 6 7----1009.8- 17.2- 16.6---
2024-06-13 02:40 pmSSE 7 7----1009.7- 17.2- 16.7---
2024-06-13 02:30 pmSSE 7 7----1009.5- 16.8- 16.5---
2024-06-13 02:20 pmSSE 7 7----1009.5- 16.9- 16.5---
2024-06-13 02:10 pmSSE 7 7----1009.5- 17.1- 16.4---
2024-06-13 02:00 pmSSE 8 8----1009.5 +0.4 17.0- 16.4---
2024-06-13 01:50 pmSSE 8 8----1009.5- 17.1- 16.5---
2024-06-13 01:40 pmSSE 9 9----1009.2- 17.1- 16.5---
2024-06-13 01:30 pmSSE 9 9----1009.1- 17.0- 16.4---
2024-06-13 01:20 pmSSE 7 8----1009.2- 16.9- 16.3---
2024-06-13 01:10 pmSSE 8 8----1009.4- 16.5- 16.0---
2024-06-13 01:00 pmSSE 8 9----1009.2 +1.0 16.7- 16.1---
2024-06-13 12:50 pmSSE 8 9----1009.2- 16.4- 16.0---
2024-06-13 12:40 pmSSE 8 8----1009.2- 16.7- 16.1---
2024-06-13 12:30 pmSSE 9 9----1009.2- 16.7- 16.0---
2024-06-13 12:20 pmSSE 9 9----1009.2- 17.1- 16.2---
2024-06-13 12:10 pmSSE 9 10----1009.2- 16.8- 16.2---
2024-06-13 12:00 pmSSE 9 9----1009.2 +0.9 16.6- 16.0---
2024-06-13 11:50 amSSE 9 10----1009.2- 16.4- 16.0---
2024-06-13 11:40 amSSE 9 9----1009.3- 16.3- 15.9---
2024-06-13 11:30 amSSE 8 9----1009.2- 16.6- 16.0---
2024-06-13 11:20 amSSE 8 8----1009.0- 16.7- 16.0---
2024-06-13 11:10 amSSE 7 7----1009.0- 16.1- 15.7---
2024-06-13 11:00 amSSE 8 8----1009.1 -1.0 16.3- 15.7---
2024-06-13 10:50 amSSE 6 7----1009.0- 15.9- 15.6---
2024-06-13 10:40 amSSE 8 8----1008.5- 16.0- 15.6---
2024-06-13 10:30 amSSE 8 8----1008.2- 15.8- 15.4---
2024-06-13 10:20 amSSE 8 8----1008.3- 15.9- 15.4---
2024-06-13 10:10 amSSE 8 8----1008.2- 15.9- 15.4---
2024-06-13 10:00 amSSE 8 9----1008.2 -1.9 15.9- 15.4---
2024-06-13 09:50 am SE 8 9----1008.2- 15.9- 15.4---
2024-06-13 09:40 amSSE 10 11----1008.2- 16.1- 15.3---
2024-06-13 09:30 amSSE 10 10----1008.1- 17.0- 15.9---
2024-06-13 09:20 am SE 8 8----1008.0- 18.5- 16.6---
2024-06-13 09:10 am SE 4 5----1008.0- 18.8- 16.7---
2024-06-13 09:00 amESE 5 6----1008.3 +0.0 17.9- 16.3---
2024-06-13 08:50 am E 4 4----1008.7- 17.5- 16.2---
2024-06-13 08:40 am E 1 2----1009.8- 17.0- 15.7---
2024-06-13 08:30 amNNW 2 3----1010.3- 16.5- 15.4---
2024-06-13 08:20 amNNW 3 4----1011.0- 16.3- 15.2---
2024-06-13 08:10 amWNW 3 4----1011.2- 16.1- 15.3---
2024-06-13 08:00 am SW 1 2----1010.1 +1.6 16.8- 15.6---
2024-06-13 07:50 am W 3 4----1010.3- 17.0- 15.4---
2024-06-13 07:40 amWNW 4 4----1010.1- 17.2- 15.3---
2024-06-13 07:30 amWNW 5 6----1010.2- 17.5- 15.4---
2024-06-13 07:20 am W 6 8----1010.2- 18.5- 15.7---
2024-06-13 07:10 amNNW 3 6----1010.3- 17.5- 15.8---
2024-06-13 07:00 amSSW 3 4----1010.1 +1.6 17.1- 15.8---
2024-06-13 06:50 am S 7 8----1009.3- 17.4- 16.0---
2024-06-13 06:40 am S 8 9----1008.6- 17.5- 16.0---
2024-06-13 06:30 amSSE 10 11----1008.2- 17.9- 16.2---
2024-06-13 06:20 amSSE 10 10----1008.1- 17.4- 16.1---
2024-06-13 06:10 amSSE 10 10----1008.1- 17.1- 16.0---
2024-06-13 06:00 amSSE 10 11----1008.1 +0.0 17.3- 16.0---
2024-06-13 05:50 amSSE 9 11----1008.2- 17.3- 15.9---
2024-06-13 05:40 amSSE 9 9----1008.3- 16.3- 15.5---
2024-06-13 05:30 amSSE 8 9----1008.3- 16.0- 15.2---
2024-06-13 05:20 amSSE 8 8----1008.3- 16.4- 15.4---
2024-06-13 05:10 amSSE 9 10----1008.2- 16.9- 15.5---
2024-06-13 05:00 amSSE 8 8----1008.5 +0.0 16.1- 15.2---
2024-06-13 04:50 amSSE 8 9----1008.5- 16.6- 15.3---